Flag for Brazil Weather past 2 weeks in Foz do Iguaçu, Paraná, Brazil

Now
70 °F

Clear.


Feels Like: 70 °F
Forecast: N/A
Wind: 2 mph from Southeast

Location: Foz Do Iguacu Aeroporto

Current Time: Aug 3, 2015 at 8:50:03 PM

Latest Report: Aug 3, 2015 at 8:00 PM


Visibility: 10 mi

Pressure: 29.95 "Hg

Humidity: 78%

Dew point: 63 °F

Location of Foz do IguaçuLocation

Historic Weather in Foz do Iguaçu — Graph

°F

Foz do Iguaçu temperature yesterday

Maximum temperature yesterday: 84 °F (at 2:00 PM)
Minimum temperature yesterday: 61 °F (at 6:00 AM)
Average temperature yesterday: 73 °F

Past Weeks' High & Low Weather Summary

 TemperatureHumidityPressure
High86 °F (Aug 1, 3:00 PM)100% (Jul 20, 5:00 PM)30.24 "Hg (Jul 20, 5:00 PM)
Low32 °F (Jul 26, 3:00 AM)33% (Aug 1, 12:00 PM)29.86 "Hg (Aug 2, 4:00 PM)
Average64 °F79%30.06 "Hg
* Reported Jul 19 8:00 PM — Aug 3 8:00 PM, Foz do Iguaçu, Weather by CustomWeather, © 2015

Note: Actual official high and low records may vary slightly from our data, if they occured in-between our weather recording intervals... More about our weather records

Advertising

Foz do Iguaçu weather history for previous 24 hours

 ConditionsComfort  
Time TempWeatherWind HumidityBarometerVisibility
8:00 PM
Mon, Aug 3
70 °FClear.2 mph78%29.95 "Hg10 mi
7:00 PM72 °FClear.No wind78%29.95 "Hg10 mi
6:00 PM79 °FClear.No wind58%29.92 "Hg10 mi
5:00 PM84 °FSunny.6 mph40%29.92 "Hg10 mi
4:00 PM86 °FSunny.7 mph38%29.92 "Hg10 mi
3:00 PM84 °FSunny.10 mph40%29.95 "Hg10 mi
2:00 PM84 °FSunny.10 mph37%29.95 "Hg10 mi
1:00 PM82 °FSunny.15 mph40%29.98 "Hg10 mi
12:00 PM82 °FSunny.15 mph40%30.01 "Hg10 mi
11:00 AM81 °FSunny.13 mph42%30.01 "Hg10 mi
10:00 AM75 °FSunny.10 mph50%30.01 "Hg10 mi
9:00 AM68 °FSunny.3 mph73%29.98 "Hg10 mi
8:00 AM61 °FSunny.3 mph88%29.98 "Hg10 mi
7:00 AM59 °FSunny.6 mph88%29.95 "Hg10 mi
6:00 AM59 °FClear.7 mph88%29.95 "Hg10 mi
5:00 AM61 °FClear.5 mph88%29.95 "Hg10 mi
4:00 AM59 °FClear.1 mph94%29.95 "Hg10 mi
3:00 AM63 °FClear.6 mph83%29.95 "Hg10 mi
2:00 AM61 °FClear.5 mph88%29.95 "Hg10 mi
1:00 AM63 °FClear.2 mph83%29.92 "Hg10 mi
12:00 AM66 °FClear.2 mph73%29.92 "Hg10 mi
11:00 PM
Sun, Aug 2
73 °FClear.5 mph50%29.89 "Hg10 mi
10:00 PM73 °FClear.5 mph50%29.89 "Hg10 mi
9:00 PM72 °FClear.5 mph61%29.89 "Hg10 mi
8:00 PM68 °FClear.2 mph73%29.89 "Hg10 mi
Weather by CustomWeather, © 2015

See weather overviewHow to use our weather pages